Regional Weather Roundup
Issued by NWS Upton, NY

Current Version | Previous Version | Graphics & Text | Print | Product List | Glossary Off
Versions: 1 2 3 4 5 6 7 8 9 10 11 12 13 14 15 16 17 18 19 20 21 22 23 24 25 26 27 28 29 30 31 32 33 34 35 36 37 38 39 40 41 42 43 44 45 46 47 48 49 50

868
ASUS41 KOKX 262308
RWROKX

REGIONAL WEATHER ROUNDUP
NATIONAL WEATHER SERVICE NEW YORK NY
600 PM EST SUN FEB 26 2017

NOTE: "FAIR" INDICATES FEW OR NO CLOUDS BELOW 12,000 FEET WITH NO
SIGNIFICANT WEATHER AND/OR OBSTRUCTIONS TO VISIBILITY.

NYZ071-072-176-178-NJZ106-104-270000-
NEW YORK CITY METRO AREA

CITY           SKY/WX    TMP DP  RH WIND       PRES   REMARKS
Central Park   PTCLDY    40  14  34 W9        30.14R WCI  34
Wall St Helipt NOT AVBL
LaGuardia APRT PTCLDY    42  17  36 NW17      30.12R
Kennedy INTL   PTCLDY    40  20  44 W22       30.13R WCI  30
Breezy Point     N/A     37 N/A N/A W14G22      N/A  WCI  29
Newark/Liberty PTCLDY    40  16  37 W18       30.14R WCI  31
Teterboro      PTCLDY    41  16  36 NW9       30.12R
$$

NYZ177-179-078>081-270000-
LONG ISLAND NEW YORK

CITY           SKY/WX    TMP DP  RH WIND       PRES   REMARKS
Jones Beach      N/A     39 N/A N/A W18G26      N/A  WCI  30
Matinecock PT  NOT AVBL
Farmingdale    CLEAR     38  18  44 N9        30.11R WCI  31
MacArthur/ISP  PTCLDY    37  18  46 NW10      30.10R WCI  30
Shirley        CLEAR     37  17  44 NW13      30.11R WCI  29
Westhampton    PTCLDY    37  16  42 NW13      30.11R WCI  29
Southampton    NOT AVBL
Bridgehampton  NOT AVBL
East Hampton     N/A     37  18  47 W9        30.08R WCI  30
Montauk          N/A     40  23  50 W13G23    30.08R WCI  32
$$

NYZ052-065-067-270000-
HUDSON VALLEY

CITY           SKY/WX    TMP DP  RH WIND       PRES   REMARKS
White Plains   PTCLDY    36  15  42 NW14      30.10R WCI  27
Newburgh       MOCLDY    36  18  48 W12G17    30.12R WCI  27
Montgomery     CLOUDY    36  17  46 W9        30.11R WCI  29
Poughkeepsie   CLOUDY    35  14  42 W12       30.11R WCI  27
Albany         MOCLDY    33  18  53 W10       30.10R WCI  25
$$

NJZ001-105-106-008-010-013-015-019>022-104-270000-
NEW JERSEY

CITY           SKY/WX    TMP DP  RH WIND       PRES   REMARKS
Newark/Liberty PTCLDY    40  16  37 W18       30.14R WCI  31
Teterboro      PTCLDY    41  16  36 NW9       30.12R
Caldwell       MOCLDY    39  15  37 NW9       30.13R WCI  33
Somerville     CLEAR     38  15  39 NW7       30.14R WCI  33
Linden         NOT AVBL
Sussex         PTCLDY    35  15  44 NW7       30.13R WCI  29
Andover          N/A     36  15  42 CALM      30.12R
Trenton        PTCLDY    39  17  41 NW8       30.16R WCI  33
Millville      CLEAR     40  21  46 NW7       30.18R
Atlantic City  CLEAR     40  18  41 W10       30.18R WCI  33
Wrightstown    CLEAR     39  16  39 NW12G20   30.14R WCI  32
Toms River     CLEAR     39  17  41 W9        30.17R WCI  33
Belmar         CLEAR     37  17  44 NW12      30.16R WCI  29
$$

PAZ047>061-062-071-270000-
EASTERN PENNSYLVANIA

CITY           SKY/WX    TMP DP  RH WIND       PRES   REMARKS
Philadelphia   PTCLDY    42  16  34 W15       30.19R
Allentown      CLEAR     36  15  42 NW8       30.16R WCI  30
Scranton       CLOUDY    34  17  50 NW7       30.12R WCI  28
$$

CTZ002-004>006-009-010-012-RIZ004-006-007-MAZ004-011-015-270000-
SOUTHERN NEW ENGLAND
 IN CT

CITY           SKY/WX    TMP DP  RH WIND       PRES   REMARKS
Bradley INTL   CLOUDY    35  18  49 W13       30.08R WCI  26
Hartford       PTCLDY    35  18  49 NW10      30.10R WCI  27
Danbury        MOCLDY    35  13  40 W9        30.11R WCI  28
Wtrbury/Oxford MOCLDY    36  12  38 NW9G16    30.08R WCI  29
Bridgeport     MOCLDY    39  16  39 W14G23    30.11R WCI  31
Meriden        CLOUDY    39  17  41 NW7       30.09R WCI  34
New Haven      MOCLDY    38  17  42 NW9       30.10R WCI  31
Chester          N/A     36  16  44 NW10      30.07R WCI  28
Groton         CLEAR     37  16  42 NW13      30.07R WCI  29
Wilimantic     PTCLDY    37  16  42 NW12G22   30.07R WCI  29

 IN RI

CITY           SKY/WX    TMP DP  RH WIND       PRES   REMARKS
Providence     PTCLDY    37  13  37 W12G23    30.04R WCI  29
Block Island   CLEAR     37  19  48 NW8       30.06R WCI  31
Westerly       CLEAR     38  13  35 VRB6      30.07R WCI  33
 IN MA

CITY           SKY/WX    TMP DP  RH WIND       PRES   REMARKS
Boston         PTCLDY    37  14  38 W18G26    30.01R WCI  27
Worcester      PTCLDY    31  12  45 W18G30    29.99R WCI  19
Westfield      PTCLDY    34  15  46 W15       30.07R WCI  24
Provincetown   CLEAR     39  19  44 W18G25    30.00R WCI  30
Nantucket      CLEAR     39  20  46 W16G23    30.00R WCI  30
$$

ANZ330-335-338-340-345-350-353-355-270000-
COASTAL MARINE OBSERVATIONS


STATION/POSITION TIME  SKY/WX   TEMP    WIND        PRES    VSBY  WAVE
                                AIR SEA DIR/SP/G                  HT/PER
                 (UTC)          (F)     (DEG/KT/KT) (MB)    (MI)  (FT/S)
NY HARB ENTRANCE 2250            40 43  280/ 19/ 25 1019.7          3/10
20 S FIRE ISLAND 2250            40 43  280/ 21/ 25 1019.1          5/ 5
GREAT SOUTH BAY  NOT AVBL
23 SSW MONTAUK P 2250            40 44              1018.4          5/10
15 E BARNEGAT LI 2230               44                N/A           4/ 9
HUDSON CANYON    2150               47              1018.7          6/ 6
KINGS POINT      2242            40 41              1019.5
EXECUTION ROCKS  NOT AVBL
CENTRAL LI SOUND 2200            40     290/ 16/ 19   N/A           3/ 4
EASTERN LI SOUND NOT AVBL
ROBBINS REEF     2242            39     270/ 20/ 26 1020.2
$$


>>>>>>>>>>>>>>>>>>>>>>>>>>>> KEY <<<<<<<<<<<<<<<<<<<<<<<<<<<
>                                                          <
>     SKY/WX - Sky Condition/Present Weather               <
>     TMP    - Temperature in Fahrenheit                   <
>     DP     - Dew Point in Fahrenheit                     <
>     RH     - Relative Humidity in Percent                <
>     WIND   - Direction (from) and Speed in MPH           <
>     PRES   - Mean Sea Level Pressure (inches of Hg)      <
>     WCI    - Wind Chill Index                            <
>     VSB    - VISIBILITY IN MILES                         <
>     HX     - HEAT INDEX                                  <
>     TC     - TEMPERATURE IN CELSIUS                      <
>     VRB    - VARIABLE WIND DIRECTION                     <
>                                                          <
>>>>>>>>>>>>>>>>>>>>>>>>>>>> KEY <<<<<<<<<<<<<<<<<<<<<<<<<<<




USA.gov is the U.S. government's official web portal to all federal, state and local government web resources and services.